Location: Campestrin
(46.4667°N, 11.7167°E)
Time: 11:15:30
(UTC+00:00)

Cosmos 1300 - Pass Details

Date: 18 April 2021
Orbit: 510 x 513 km, 82.5° (Epoch: 07 May)

Event Time Altitude Azimuth Distance (km) Brightness Sun altitude
Rises 18:39:51 0° 202° (SSW) 2,612 6.3 -6.4°
Reaches altitude 10° 18:42:02 10° 208° (SSW) 1,730 5.4 -6.8°
Maximum altitude 18:45:42 45° 283° (WNW) 703 4.0 -7.4°
Drops below altitude 10° 18:49:23 10° 357° (N) 1,743 5.8 -7.9°
Sets 18:51:35 0° 4° (N) 2,634 6.6 -8.3°
